Dewpoint
65 55 47 51 47 48 41 39 36 32 24 18 19 31 42 45 47 44 52 55 55 56 56 58 63 62 60 60 62 61 62 62 59 59 58 59 61 58 59 58 59 61 61 61 59 59 59 58 61
62 53 47 47 44 36 35 36 31 30 25 23 23 23 38 45 52 50 51 55 55 55 56 57 62 61 60 59 59 58 58 59 59 59 60 58 58 59 59 58 58 59 59 58 59 59 59 57 59
58 52 38 44 38 35 35 33 30 27 25 23 21 24 39 46 52 49 51 54 54 54 55 58 61 60 60 59 59 60 59 59 59 58 57 58 58 58 58 58 58 58 57 57 58 58 57 56 56
43 41 36 33 33 36 35 32 30 27 25 24 24 37 40 46 51 50 51 53 53 54 56 60 60 61 60 59 61 59 59 58 59 58 57 57 58 59 58 56 56 56 56 56 56 56 56 54 53
43 40 35 31 29 31 35 33 31 31 28 26 19 29 40 47 49 49 49 51 53 54 56 58 62 62 61 59 59 58 58 58 58 57 57 57 56 54 55 55 54 53 53 53 53 54 54 54 53
39 39 31 30 30 29 35 34 34 31 25 20 20 40 41 47 47 47 49 50 55 55 57 57 61 61 61 60 59 59 58 58 57 56 56 56 53 51 50 50 51 51 51 52 52 53 52 52 53
39 38 35 34 33 28 34 34 32 29 27 26 25 39 43 46 46 47 48 50 56 56 57 56 57 58 61 60 60 58 58 58 56 55 55 54 51 50 51 49 49 50 50 50 50 52 51 48 49
43 41 36 35 34 31 34 34 33 31 29 31 28 37 41 43 46 46 47 47 55 56 58 56 57 58 56 57 59 59 58 58 55 54 52 51 50 48 47 50 48 48 47 47 49 50 50 43 41
45 38 36 34 32 34 35 33 32 30 27 29 32 33 39 46 46 44 45 44 50 56 56 55 55 56 55 55 57 59 59 57 55 53 51 48 45 46 47 49 51 50 50 49 47 45 44 43 44
41 39 39 37 33 35 38 36 32 31 28 30 37 42 45 45 44 43 44 43 45 50 55 55 54 54 54 54 55 55 56 56 54 53 51 47 45 46 47 49 47 50 51 49 46 45 46 46 43
38 38 39 38 38 38 38 36 37 31 33 30 35 42 44 44 44 43 44 43 43 44 50 54 54 54 53 54 56 55 55 54 54 53 52 51 48 47 41 44 44 46 48 43 46 46 45 42 40
29 27 28 33 39 37 38 37 35 37 35 37 35 42 43 42 43 43 43 43 43 43 42 49 53 53 52 55 55 55 54 54 52 52 51 49 43 40 38 41 43 44 46 43 43 43 42 39 36
23 25 25 26 29 36 37 35 34 34 36 37 36 42 42 42 42 42 43 43 43 42 42 46 49 51 51 55 54 53 53 53 51 50 49 47 44 42 41 40 42 42 42 40 39 40 39 38 37
24 25 24 23 22 29 31 31 33 33 35 34 37 40 42 42 41 40 41 41 42 43 43 46 48 49 49 49 49 49 49 50 47 47 47 45 45 44 44 41 40 39 40 39 39 39 39 38 38
21 19 20 22 22 21 27 22 24 26 28 29 31 37 40 42 42 41 39 39 41 43 44 46 48 49 48 47 48 48 48 47 47 46 45 44 43 44 42 42 41 40 41 40 40 39 40 39 41
17 18 18 22 24 24 19 18 20 21 21 25 28 29 36 40 41 41 41 39 39 43 44 46 48 49 49 48 48 49 49 48 47 46 45 43 43 43 42 42 42 42 42 41 42 42 42 42 43
19 14 16 19 21 23 20 19 23 23 21 19 23 28 28 34 38 40 41 38 37 41 45 46 48 49 49 49 50 49 49 49 49 48 46 44 43 43 44 43 43 43 43 43 43 43 42 41 42
16 14 13 14 18 23 22 21 23 24 20 17 19 19 18 24 32 36 38 39 38 40 45 46 47 49 49 49 49 50 49 49 49 49 48 47 45 44 44 45 44 43 44 44 44 43 43 43 43
18 16 16 16 21 17 15 16 17 19 18 14 17 18 17 16 18 31 35 38 37 38 44 45 46 48 49 48 47 48 48 49 49 49 48 47 46 45 45 45 44 44 43 43 43 43 42 43 44
20 18 16 17 18 16 15 16 18 19 20 19 18 18 18 17 28 24 34 36 36 36 42 44 46 47 48 48 48 47 48 48 49 50 49 48 47 47 45 46 45 44 44 43 43 44 43 43 45
14 14 15 15 19 19 17 20 20 21 21 22 23 23 24 22 22 20 31 35 37 37 38 43 45 46 47 48 48 47 48 48 48 49 49 48 48 47 46 46 46 45 44 44 43 44 43 43 45
14 24 24 21 18 13 17 16 18 19 20 21 22 23 24 26 26 27 27 30 36 37 38 40 44 45 46 47 48 47 46 46 47 48 49 49 48 48 47 46 45 45 45 45 45 45 45 45 44
16 26 23 24 19 23 18 14 23 19 19 21 22 23 25 26 28 29 29 29 33 37 39 40 43 45 45 46 47 47 46 47 48 49 49 49 49 48 47 45 44 44 45 45 45 46 46 46 45
23 20 21 21 21 19 16 17 17 17 19 21 23 25 26 28 29 31 31 32 33 38 40 41 42 44 45 46 47 47 47 47 48 48 48 49 50 49 47 47 45 44 44 44 45 45 46 46 46
22 21 20 20 19 19 16 12 18 20 23 24 25 26 28 29 30 32 33 31 32 37 40 42 43 43 44 45 46 47 47 47 47 48 48 49 49 49 48 46 46 45 44 44 45 45 45 45 45
21 20 18 11 11 13 19 15 19 20 24 27 28 28 29 30 32 33 34 35 32 32 42 43 44 43 44 45 46 47 48 48 48 48 49 48 49 49 49 47 46 45 45 45 45 45 45 45 45
20 17 19 15 17 14 16 15 19 20 22 27 28 30 32 33 34 35 35 36 36 36 34 42 44 45 45 45 46 47 48 49 49 49 49 49 49 49 49 49 47 46 45 45 45 45 45 45 45
20 22 18 21 10 16 13 12 16 19 24 27 30 32 34 35 35 35 36 36 36 37 37 37 38 43 45 46 47 47 47 47 49 50 49 50 50 50 49 49 48 47 46 45 45 45 45 45 46
20 17 18 18 20 14 14 16 22 25 27 28 30 32 33 33 33 33 34 35 36 35 37 38 38 37 38 42 45 47 48 48 48 49 50 50 50 50 49 49 48 47 46 46 45 45 45 44 44
19 19 19 20 18 20 20 19 26 27 28 28 28 30 31 31 32 33 32 33 33 32 34 36 36 37 38 37 39 44 47 48 48 48 49 49 50 50 50 48 48 47 46 45 44 44 44 44 44
Lifted_Index
5 6 6 4 2 1 1 2 2 3 5 7 8 8 7 6 5 6 8 9 9 10 10 9 9 9 10 10 10 10 10 10 11 11 11 10 10 10 10 10 10 10 10 10 10 10 10 10 10
5 6 6 4 3 2 1 2 2 3 5 7 8 8 7 6 6 7 8 9 9 10 9 9 9 9 10 10 10 10 10 10 11 11 11 10 10 10 10 10 10 10 10 10 10 10 11 11 11
6 6 6 5 3 3 2 2 2 3 5 6 8 8 7 6 7 8 8 8 9 9 9 9 9 9 10 10 10 10 10 10 10 10 10 10 10 10 10 10 11 11 11 11 11 11 11 12 12
7 7 6 5 4 3 3 3 3 3 4 6 7 8 7 7 7 8 8 8 9 9 9 8 9 9 9 9 9 9 9 10 10 10 10 10 10 10 11 11 11 12 12 12 12 12 12 13 13
7 7 6 5 4 3 3 3 3 3 4 6 7 7 7 7 7 8 8 8 9 9 8 8 8 8 8 9 9 9 9 9 9 10 10 10 11 11 12 12 12 13 13 13 13 13 13 13 14
7 6 6 5 4 4 4 3 3 3 3 5 6 7 7 7 7 8 8 8 8 8 8 8 8 8 8 8 8 8 8 9 9 10 10 11 12 13 13 13 13 14 14 14 13 13 14 14 14
6 6 6 5 4 4 4 3 3 3 3 4 6 6 7 7 8 8 8 8 8 8 7 7 7 7 7 7 7 7 7 8 9 10 11 12 13 14 14 14 14 14 14 14 14 14 14 16 16
6 6 5 5 4 3 3 3 3 3 3 4 5 6 6 7 8 8 8 8 7 7 7 7 7 7 7 7 7 7 7 8 9 11 12 13 14 14 14 14 14 14 14 14 14 15 16 17 17
5 5 5 5 4 3 3 2 3 3 3 4 4 5 6 7 8 8 8 8 7 6 6 6 6 6 6 7 6 6 7 8 9 11 12 13 14 15 15 15 14 14 14 14 15 16 16 17 18
5 5 5 5 4 3 2 2 2 2 3 3 3 4 5 6 7 8 8 8 7 6 5 5 6 6 6 7 6 6 7 8 9 10 12 13 14 15 15 16 15 15 14 15 16 16 17 17 18
6 5 5 5 4 3 2 2 2 2 2 3 3 4 5 6 7 8 8 8 8 7 6 5 6 6 6 6 7 7 7 8 9 10 11 12 14 15 16 17 17 16 16 16 16 17 17 18 18
7 6 6 5 5 4 3 2 2 2 2 3 3 4 4 5 6 6 7 7 8 8 7 6 6 6 6 6 6 7 7 8 9 10 11 12 14 15 16 17 17 17 17 17 17 17 17 17 18
8 8 7 7 6 5 4 3 3 3 3 3 3 4 4 5 5 6 6 7 7 8 8 7 6 6 6 6 7 7 8 9 10 11 11 13 14 15 16 16 17 17 17 17 17 17 17 17 17
8 8 8 7 7 6 5 5 4 4 4 4 4 4 4 4 5 5 6 6 7 8 8 8 7 7 6 6 7 8 9 9 10 11 12 13 14 15 16 16 17 17 17 17 17 17 17 17 17
8 7 7 7 7 6 6 5 5 6 6 5 5 5 5 5 5 5 5 6 6 7 8 8 8 7 7 7 8 9 9 10 11 12 13 14 15 15 15 16 16 17 17 17 17 17 17 16 16
7 7 6 6 6 6 6 6 6 6 7 6 6 6 5 5 5 5 6 6 6 7 7 7 8 7 7 8 8 9 10 11 12 13 14 14 15 15 15 16 16 16 17 17 17 17 16 16 15
6 6 6 6 7 7 6 6 6 7 7 7 7 7 7 6 6 6 6 6 6 6 7 7 7 7 7 8 8 9 10 11 12 13 13 14 15 15 15 16 16 16 17 17 17 16 16 15 15
6 6 6 6 7 7 6 6 7 8 8 8 8 8 8 7 7 6 6 6 6 6 7 7 7 7 7 8 8 9 10 11 12 12 13 13 14 15 15 15 16 16 17 17 16 16 15 15 15
6 6 6 6 7 7 7 7 7 8 8 8 8 8 9 9 8 7 7 6 6 7 7 7 8 7 7 8 8 9 10 11 12 12 12 13 13 14 15 15 16 16 16 16 16 15 15 14 14
6 6 5 6 7 7 7 7 7 8 8 8 8 9 9 9 9 9 8 7 7 7 7 7 8 8 8 8 8 9 10 11 12 12 12 12 13 13 14 15 15 16 16 16 15 15 14 13 14
6 6 5 6 6 6 6 6 7 7 8 8 9 9 9 9 9 9 8 8 7 7 7 8 8 8 8 8 9 9 10 11 11 12 12 12 12 13 13 14 14 15 15 15 15 14 13 13 12
6 6 6 6 5 5 5 5 6 7 7 8 9 9 9 9 9 9 9 8 8 8 8 8 8 8 8 8 9 9 10 11 11 12 12 12 12 12 12 13 14 14 15 14 14 14 13 12 12
6 7 7 6 5 4 4 5 5 7 7 8 9 10 10 10 10 10 10 9 8 8 8 8 8 8 8 8 9 9 10 11 11 11 11 12 12 12 12 12 13 14 14 14 14 14 13 12 11
7 6 5 5 4 3 4 5 5 6 8 8 9 10 10 10 10 10 10 10 9 9 8 8 8 9 9 9 9 9 10 10 11 11 11 11 11 12 12 12 13 13 14 14 14 13 13 12 11
6 5 3 2 2 2 4 4 5 7 9 9 9 10 10 10 10 10 10 10 10 10 9 9 9 9 9 9 9 9 9 10 10 11 11 11 11 11 11 12 12 13 14 14 14 14 13 12 11
5 5 3 2 1 2 3 4 6 8 9 9 9 9 10 10 10 10 10 10 10 10 10 9 9 9 9 9 9 9 9 9 10 10 11 11 11 11 11 12 12 13 13 14 14 14 13 12 12
6 5 4 3 2 2 3 4 6 8 9 9 8 9 9 10 10 10 10 10 10 11 11 10 10 9 9 9 9 9 9 9 10 10 10 11 11 11 11 11 12 12 13 13 14 13 13 12 12
6 6 5 4 2 1 2 4 6 8 9 8 8 8 8 9 10 10 10 10 10 11 11 11 11 10 10 10 9 9 9 9 9 10 10 10 10 10 10 10 11 11 12 13 13 13 12 12 11
6 6 6 5 3 2 2 4 6 7 8 8 8 8 8 9 9 10 10 10 11 11 11 12 12 12 11 11 11 10 10 9 9 9 9 10 10 10 10 10 10 11 11 12 13 13 12 11 11
6 6 6 5 3 3 3 4 6 7 8 8 8 8 9 9 9 10 10 10 11 11 11 12 12 12 12 12 12 11 10 10 9 9 9 9 9 10 10 9 10 10 11 12 12 13 12 11 10